DELTA 1 DEB, 2706

Orbit data source: Space-Track

DELTA 1 DEB, 2706 is space debris in SSO originally from a launch on Thu, 26 Jan 1967 UTC launched from the Air Force Western Test Range (AFWTR). Debris objects in space refer to the collection of defunct objects orbiting the Earth. Examples of debris include non-operational satellites, rocket bodies, and fragments generated from explosions, collisions, or faulty payload assembly.

Loading next visibility...
Identifier
2706, 1967-006C
Orbit
SSO
Country
Flag of USUS
Related business
Manufacturer
Unknown
Mission
Spacecraft
Bus & Motor
Unknown
Mass
Unknown
Launch date (UTC)
1967-01-26 (59 years ago)
Launch vehicle
Unknown
Launch site
Air Force Western Test Range (AFWTR)
Object type
Payload
Rocket body
Debris
Shape & HBR
Unknown shape, 0.1 m
Radar Cross Section
Small (<0.1 m²)

Expand to show TLE details & history
Last TLE update: 1 day ago

TLE from 1 day ago
0 DELTA 1 DEB
1 02706U 67006C   26129.64151942 -.00000047  00000-0  10178-4 0  9999
2 02706 102.1764 168.1110 0035850 131.2183 349.2885 12.60933282727692
Epoch: 2026-05-09T15:23Z
TLE epoch observation values (Epoch: 2026-05-09T15:23:47.277Z)
Latitude
57.53691°
Longitude
-90.56713°
Altitude
1,401.088 km
Speed
7.177 km/s
True Right ascension
00h 31m 20s
True Declination
57° 23' 38"
Sunlit
Object was in daylight at epoch
Visualization orbit readout
Latitude
Unknown
Longitude
Unknown
Altitude
Unknown
Speed
Unknown
Apparent Right ascension
Unknown
Apparent Declination
Unknown
Sunlit
N/A
Visualization observer readout
Local Sidereal Time
03:13:49
Azimuth
Unknown
Elevation
Unknown
Doppler factor
Unknown
Orbital elements
Apogee altitude
1,444.597 km
Perigee altitude
1,388.708 km
Semi-major axis
7,794.79 km
Eccentricity
0.00359
Inclination
102.1764°
RAAN
168.111°
Arg. of periapsis
131.2183°
True anomaly
349.21181°
Mean anomaly
349.2885°
Eccentric anomaly
349.25019°
Mean motion
3.15382 °/min
Orbital period
114.15 mins
BSTAR
0.000010178
Loading maneuver chart data...
Computing Atmospheric mass density...
Loading historical data...
Loading historical data...
Loading historical data...
Loading historical data...
Loading historical data...
Loading historical data...
Loading historical data...
Other satellites on launch #6 in the year 1967 (1967-01-26 UTC)

Documentation

Showing up to 5 results
|